Weather History for KAPA - June, 2013

Change the Weather History Date:

Friday, June 14, 2013

  Actual Average Record
Temperature  
Mean Temperature 74 °F -  
Max Temperature 88 °F 76 °F 98 °F (2006)
Min Temperature 59 °F 47 °F 37 °F (2001)
Cooling Degree Days 9    
Month to date cooling degree days 68  
Growing Degree Days 26 (Base 50)    
Moisture  
Dew Point 37 °F    
Average Humidity 30    
Maximum Humidity 48    
Minimum Humidity 12    
Precipitation  
Precipitation 0.00 in - - ()
Month to date precipitation 0.26  
Year to date precipitation 5.02  
Sea Level Pressure  
Sea Level Pressure 29.77 in    
Wind  
Wind Speed 14 mph (South)    
Max Wind Speed 35 mph    
Max Gust Speed 41 mph    
Visibility 10 miles    
Events      
Averages and records for this station are not official NWS values.
T = Trace of Precipitation, MM = Missing Value Source: NWS Daily Summary

Daily Weather History Graph

Daily Weather History Graph

Search for Another Location

Airport or City:

Trip Planner

Search our weather history database for the weather conditions in past years. The results will help you decide how hot, cold, wet, or windy it might be!

Date:

Astronomy

Jun. 14, 2013 Rise Set
Actual Time 5:31 AM MDT 8:28 PM MDT
Civil Twilight 4:58 AM MDT 9:00 PM MDT
Nautical Twilight 4:17 AM MDT 9:41 PM MDT
Astronomical Twilight 3:30 AM MDT 10:29 PM MDT
Moon 11:07 AM MDT (6/14) No Moon Set
Length of Visible Light 16h 01m
Length of Day
14h 56m
Waxing Crescent, 31% of the Moon is Illuminated
Jun 14
Waxing Crescent
Jun 16
First Quarter
Jun 23
Full
Jun 29
Last Quarter
Jul 8
New

Hourly Weather History & Observations

Time (MDT) Temp. Dew Point Humidity Pressure Visibility Wind Dir Wind Speed Gust Speed Precip Events Conditions
12:53 AM 75.0 °F 37.0 °F 25% 29.77 in 10.0 mi SSW 20.7 mph 25.3 mph N/A   Mostly Cloudy
1:53 AM 73.0 °F 37.0 °F 27% 29.75 in 10.0 mi SSW 15.0 mph - N/A   Mostly Cloudy
2:53 AM 73.9 °F 36.0 °F 25% 29.76 in 10.0 mi SW 4.6 mph - N/A   Mostly Cloudy
3:53 AM 71.1 °F 37.0 °F 29% 29.77 in 10.0 mi SSW 9.2 mph - N/A   Mostly Cloudy
4:53 AM 73.0 °F 35.1 °F 25% 29.75 in 10.0 mi SW 19.6 mph 27.6 mph N/A   Mostly Cloudy
5:53 AM 72.0 °F 36.0 °F 27% 29.76 in 10.0 mi SW 15.0 mph - N/A   Mostly Cloudy
6:53 AM 72.0 °F 36.0 °F 27% 29.80 in 10.0 mi WSW 10.4 mph - N/A   Mostly Cloudy
7:53 AM 72.0 °F 39.0 °F 30% 29.80 in 10.0 mi WSW 11.5 mph - N/A   Mostly Cloudy
8:53 AM 75.0 °F 37.9 °F 26% 29.80 in 10.0 mi WSW 15.0 mph 23.0 mph N/A   Mostly Cloudy
9:53 AM 77.0 °F 37.9 °F 24% 29.80 in 10.0 mi WSW 12.7 mph - N/A   Mostly Cloudy
10:53 AM 84.0 °F 32.0 °F 15% 29.78 in 10.0 mi SW 12.7 mph - N/A   Mostly Cloudy
11:53 AM 84.9 °F 30.0 °F 14% 29.78 in 10.0 mi SE 8.1 mph - N/A   Mostly Cloudy
12:53 PM 86.0 °F 28.9 °F 13% 29.75 in 10.0 mi ESE 8.1 mph - N/A   Mostly Cloudy
1:53 PM 82.9 °F 39.0 °F 21% 29.74 in 10.0 mi East 16.1 mph 28.8 mph N/A   Mostly Cloudy
2:53 PM 82.9 °F 34.0 °F 17% 29.72 in 10.0 mi East 16.1 mph 26.5 mph N/A   Mostly Cloudy
3:53 PM 84.9 °F 35.1 °F 17% 29.73 in 10.0 mi ESE 13.8 mph 25.3 mph N/A   Mostly Cloudy
4:53 PM 82.9 °F 33.1 °F 17% 29.72 in 10.0 mi ESE 17.3 mph 25.3 mph N/A   Mostly Cloudy
5:53 PM 82.9 °F 33.1 °F 17% 29.71 in 10.0 mi SSE 15.0 mph - N/A   Scattered Clouds
6:53 PM 79.0 °F 37.0 °F 22% 29.74 in 10.0 mi SE 16.1 mph 28.8 mph N/A   Mostly Cloudy
7:53 PM 69.1 °F 44.1 °F 40% 29.81 in 10.0 mi SE 21.9 mph 36.8 mph N/A   Mostly Cloudy
8:53 PM 66.9 °F 46.0 °F 47% 29.80 in 10.0 mi SE 20.7 mph 32.2 mph N/A   Mostly Cloudy
9:53 PM 66.9 °F 43.0 °F 42% 29.82 in 10.0 mi SSW 9.2 mph - N/A   Scattered Clouds
10:53 PM 66.9 °F 42.1 °F 40% 29.81 in 10.0 mi SW 11.5 mph 18.4 mph N/A   Partly Cloudy
11:53 PM 64.9 °F 42.1 °F 43% 29.82 in 10.0 mi Calm Calm - N/A   Partly Cloudy